Location: Ferintosh
(52.7647°N, 112.9692°W)
Time: 21:45:43
(UTC+00:00)

A-11 Canister half - Pass Details

Date: 19 May 2024
Orbit: 1524 x 1683 km, 47.3° (Epoch: 19 June)

Event Time Altitude Azimuth Distance (km) Brightness Sun altitude
Rises 12:16:02 0° 286° (WNW) 4,824 11.2 5.4°
Reaches altitude 10° 12:19:44 10° 275° (W) 3,860 10.6 5.9°
Maximum altitude 12:27:25 27° 223° (SW) 2,791 10.0 7.0°
Drops below altitude 10° 12:35:16 10° 171° (S) 3,926 11.0 8.1°
Sets 12:39:05 0° 160° (SSE) 4,921 11.6 8.6°
